Location: Atherton
(17.2661°S, 145.4859°E)
Time: 03:23:43
(UTC+10:00)

Hubble Space Telescope - Pass Details

Date: 16 February 2026
Orbit: 476 x 479 km, 28.5° (Epoch: 6 March)

Event Time Altitude Azimuth Distance (km) Brightness Sun altitude
Rises 20:52:50 0° 240° (WSW) 2,524 5.4 -28.3°
Reaches altitude 10° 20:55:51 10° 214° (SW) 1,646 3.9 -29.0°
Enters shadow 20:57:10 14° 194° (SSW) 1,429 3.3 -29.3°
